Regional Weather Roundup
Issued by NWS

Home | Current Version | Previous Version | Graphics & Text | Print | Product List | Glossary On
Versions: 1 2 3 4 5 6 7 8 9 10 11 12 13 14 15 16 17 18 19 20 21 22 23 24 25 26 27 28 29 30 31 32 33 34 35 36 37 38 39 40 41 42 43 44 45 46 47 48 49 50
000
ASUS43 KLOT 230112
RWRIL

ILLINOIS REGIONAL WEATHER ROUNDUP
NATIONAL WEATHER SERVICE CHICAGO/ROMEOVILLE IL
700 PM CST WED FEB 22 2017

NOTE: "FAIR" INDICATES FEW OR NO CLOUDS BELOW 12,000 FEET WITH NO
SIGNIFICANT WEATHER AND/OR OBSTRUCTIONS TO VISIBILITY.

* THESE STATIONS ARE NOT UNDER NWS QUALITY CONTROL. THEY ALSO MAY NOT
  REPORT WEATHER SUCH AS PRECIPITATION OR FOG.

ILZ001-002-007-009-015-016-024-230200-
NORTHWEST ILLINOIS

CITY           SKY/WX    TMP DP  RH WIND       PRES   REMARKS
MOLINE         CLEAR     64  50  60 S14       29.59R
STERLING*      CLEAR     60  54  80 VRB5      29.60S
SAVANNA*       CLEAR     58  53  83 S7        29.58R
$$

ILZ003-004-008-010-011-017-018-230200-
NORTH CENTRAL ILLINOIS

CITY           SKY/WX    TMP DP  RH WIND       PRES   REMARKS
ROCKFORD       CLEAR     60  50  69 S10       29.61R
FREEPORT*      CLEAR     57  52  82 S13       29.59S
ROCHELLE*      CLEAR     55  52  88 S10       29.62R
DE KALB*       CLEAR     57  53  86 S14       29.63R
PERU*          CLEAR     59  53  80 S15       29.63R
$$

ILZ005-006-012>014-019>023-230200-
NORTHEAST ILLINOIS

CITY           SKY/WX    TMP DP  RH WIND       PRES   REMARKS
CHICAGO-OHARE  CLEAR     64  54  69 S13       29.60S
CHICAGO-MIDWAY CLEAR     64  54  69 S13       29.61F
AURORA         CLEAR     62  54  74 S14       29.62R
LANSING*       CLEAR     60  57  90 S14G21    29.64F
JOLIET*        CLEAR     64  57  80 S14G20    29.64R
WAUKEGAN       CLEAR     62  52  69 SW16      29.58R
DUPAGE AIRPORT CLEAR     61  53  75 S12       29.61R
KANKAKEE*      CLEAR     58  53  84 S8        29.66F
WHEELING       CLEAR     62  53  72 S14       29.61R
MORRIS*        CLEAR     61  54  77 S17       29.63R
ROMEOVILLE*    CLEAR     61  58  88 S20       29.62S
NORTHERLY ISL    N/A     63  53  70 S8          N/A
$$

LMZ740>746-230200-
SOUTHERN LAKE MICHIGAN

STATION/POSITION SKY/WX   TEMP    WIND        PRES    VSBY  WAVE
                          AIR SEA DIR/SP/G                  HT/PER
                          (F)     (DEG/KT/KT) (MB)    (MI)  (FT/S)
HARRISON CRIB              62     180/ 23/ 25   N/A
BURNHAM HARBOR             64     180/ 16       N/A
CALUMET HARBOR             63     170/ 12/ 15 1002.6F
BURNS HARBOR               62     180/ 12/ 20 1004.4F
MICHIGAN CITY              62     150/ 15/ 17   N/A
$$

ILZ025>027-034>036-040-047-049-050-058-095>099-230200-
WEST-CENTRAL ILLINOIS

CITY           SKY/WX    TMP DP  RH WIND       PRES   REMARKS
QUINCY         CLEAR     59  54  83 S9        29.67R
GALESBURG*     CLEAR     59  50  73 S9        29.63R
MACOMB*        CLEAR     60  51  73 S13       29.67R
JACKSONVILLE*  CLEAR     53  52  94 W6        29.68R FOG
PITTSFIELD*    CLEAR     58  55  91 SW3       29.69S
$$

ILZ028>032-037-038-041>044-048-051>054-059>061-230200-
CENTRAL ILLINOIS

CITY           SKY/WX    TMP DP  RH WIND       PRES   REMARKS
PONTIAC        CLEAR     60  56  88 S10       29.65S
BLOOMINGTON    CLEAR     57  54  89 S14       29.67S
DECATUR        CLOUDY    64  54  69 S14       29.69F
PEORIA         CLEAR     58  54  86 S15       29.66R
LACON*         CLEAR     59  55  85 S14       29.63S
LINCOLN*       CLEAR     60  58  92 S9        29.66S
SPRINGFIELD    CLEAR     60  55  83 S10       29.68S
TAYLORVILLE    CLOUDY    62  55  76 S14       29.69F
$$

ILZ033-039-045-046-055>057-062-063-230200-
EAST-CENTRAL ILLINOIS

CITY           SKY/WX    TMP DP  RH WIND       PRES   REMARKS
CHAMPAIGN      CLOUDY    62  54  74 S14       29.70F
RANTOUL*       CLEAR     62  56  80 S13       29.69S
MATTOON        PTCLDY    62  56  80 S9        29.72F
PARIS*         CLOUDY    59  55  85 S12       29.74F
$$

ILZ079-100>102-230200-
SOUTHWEST ILLINOIS

CITY           SKY/WX    TMP DP  RH WIND       PRES   REMARKS
ALTON          PTCLDY    57  54  88 E8        29.70F
BELLEVILLE     PTCLDY    66  54  64 VRB7      29.70S
CAHOKIA*       PTCLDY    68  51  54 S8        29.70S
SPARTA*        MOCLDY    66  55  67 S13G18    29.76R
$$

ILZ064>066-069>071-074>076-080>082-084>086-088>090-092>094-230200-
SOUTH-CENTRAL ILLINOIS

CITY           SKY/WX    TMP DP  RH WIND       PRES   REMARKS
CARBONDALE     PTCLDY    63  56  78 S10       29.77S
CAIRO*         CLEAR     60  56  87 CALM      29.80R
EFFINGHAM*     PTCLDY    65  56  72 SE6       29.76R
MARION         CLOUDY    64  57  77 S7        29.79S
MT. VERNON     PTCLDY    64  54  69 S7        29.76S
CENTRALIA*     MOCLDY    65  56  71 S10       29.74S
SALEM*         CLOUDY    67  53  61 S9        29.75S
METROPOLIS*    PTCLDY    64  56  74 CALM      29.81R
$$

ILZ067-068-072-073-078-083-087-091-230200-
SOUTHEAST ILLINOIS

CITY           SKY/WX    TMP DP  RH WIND       PRES   REMARKS
LAWRENCEVILLE  PTCLDY    59  54  83 S9        29.78S
FLORA*         MOCLDY    64  55  72 S9        29.76S
FAIRFIELD*     PTCLDY    62  55  76 S5        29.76F
HARRISBURG*    CLOUDY    63  56  79 S3        29.79S
ROBINSON*      PTCLDY    60  54  79 S8        29.78S
CARMI*         MOCLDY    59  55  86 S7        29.79R
$$

ABBREVIATIONS USED IN REMARKS
   TC - TEMPERATURE IN CELSIUS
  WCI - WIND CHILL INDEX
   HX - HEAT INDEX
  VSB - VISIBILITY
$$





USA.gov is the U.S. government's official web portal to all federal, state and local government web resources and services.